weather.gov     
National Weather Service

Other Surface Observations
NWS Homepage
This page is being discontinued on March 12, 2014.
The same data is available at this site. Please update your bookmarks.
Thank you, and we apologize for the inconvenience.
Please send an email to SR-SRH.Webmaster@noaa.gov with any concerns.


Current Version
Previous Version:    01  02  03  04  05  06  07  08  09  10  11  12  13  14  15  16  17  18  19  20  21  22  23  24  25  26  27  28  29  30  
   31  32  33  34  35  36  37  38  39  40  41  42  43  44  45  46  47  48  49  50  51  52  53  54  55  56  57  58  59  60  
[Printable]
100
SXUS55 KTWC 171916
OSOTWC

WEATHER ROUNDUP FOR SOUTHEAST ARIZONA
NATIONAL WEATHER SERVICE TUCSON AZ
1215 PM MST WED SEP 17 2014

AZZ504>506-514-172015-
LOCATION       SKY/WX    TMP DP  RH WIND       PRES   REMARKS
TUCSON         LGT RAIN  77  68  73 E9        29.92F
DAVIS-MONTHAN  LGT RAIN  75  68  78 NE7       29.90F
CHILDRENS PARK N/A       75  71  88 NW2               PIMA CO DEQ
ALVERNON/22ND  N/A      N/A N/A N/A N/A               PIMA CO DEQ
CHERRY/GLENN   N/A      N/A N/A N/A N/A               PIMA CO DEQ
TANGERINE      N/A       73 N/A N/A SE2               PIMA CO DEQ
CONTL RANCH    N/A       75  72  89 SE2               PIMA CO DEQ
GRANT/1ST      N/A       76  72  87 S1                PIMA CO DEQ
CRAYCROFT/22ND N/A      N/A N/A N/A N/A               PIMA CO DEQ
GOLFLINKS/KOLB N/A       76  68  77 SE4               PIMA CO DEQ
AJO/12TH       N/A       76  70  82 SE8               PIMA CO DEQ
SAGUARO EAST   N/A      N/A N/A N/A N/A               PIMA CO DEQ
FAIRGROUNDS    N/A      N/A N/A N/A N/A               PIMA CO DEQ
SAGUARO        N/A       78  69  75 E5G10             *SABINO CYN
SAN CARLOS     N/A       78  69  73 E2                *SAN CARLOS
GREEN VALLEY   N/A       73  70  90 NE4               PIMA CO DEQ
HORSE CAMP CYN N/A       70  65  83 E13G17            *ARAVAIPA CYN
RINCON MTNS    N/A       55  55  100 SE8G19           *NR MANNING CAMP
$$

AZZ509>511-172015-
LOCATION       SKY/WX    TMP DP  RH WIND       PRES   REMARKS
SAFFORD        CLOUDY    76  66  71 SE5       29.97F
STRAY HORSE    N/A       60  57  89 E4                *
TRAIL CABIN    N/A       64  60  87 E6G10             *N OF GRANVILLE
BLACK HILLS    N/A       73  69  86 S5                *N OF FT THOMAS
DRY LAKE       N/A       58  58  100 SE6G13           *NATANES MTNS
NOON CREEK     N/A       66  64  94 NE3               *PINALENO MTNS
COLUMBINE      N/A       51  50  97 S5G16             *PINALENO MTNS
GUTHRIE        N/A       61  61  99 E6G13             *SW OF GUTHRIE
$$

AZZ502-503-513-172015-
LOCATION       SKY/WX    TMP DP  RH WIND       PRES   REMARKS
NOGALES        LGT RAIN  72  64  76 SE10G22   29.95F
SELLS          N/A       74  71  91 SE4G16            *
SASABE         N/A       71  68  90 CALM              *ALTAR VLY
HOPKINS        N/A       57  57  100 E29G43           *SANTA RITA MTNS
CARR CYN       N/A       64  60  88 NW5G12            *W OF HEREFORD
$$

AZZ507-508-512-172015-
LOCATION       SKY/WX    TMP DP  RH WIND       PRES   REMARKS
SIERRA VISTA   LGT RAIN  68  66  94 SE15G22   30.03F
DOUGLAS        CLOUDY    75  62  64 SE15      30.02F
EMPIRE MTNS    N/A       69  66  91 SE11G16           *LAS CIENEGAS NCA
MULESHOE RANCH N/A       69  63  80 E7G15             *PRESERVE
HEADQUARTERS   N/A       72  62  71 E7G15             *CHIRICAHUA MTNS
$$

.............................NOTES.............................
THIS IS AN AUTOMATED COLLECTIVE WITH MINIMAL QUALITY CONTROL.
PIMA CO DEQ SITES HAVE NONSTANDARD WIND SENSOR HEIGHTS.
PIMA CO DEQ SITES DO NOT REPORT WIND GUSTS.
* INDICATES WIND SENSORS LOCATED AT 20 FEET INSTEAD OF 33 FEET.
..............................KEY..............................
SKY/WX - SKY CONDITION/WEATHER
TMP    - TEMPERATURE IN FAHRENHEIT
DP     - DEWPOINT IN FAHRENHEIT
RH     - RELATIVE HUMIDITY IN PERCENT
WIND   - DIRECTION AND SPEED IN MILES PER HOUR (MPH)
VRB    - VARIABLE WIND DIRECTION
PRES   - MEAN SEA LEVEL PRESSURE IN INCHES OF MERCURY
         F - FALLING PRESSURE   R - RISING PRESSURE
         S - STEADY PRESSURE
VSB    - VISIBILITY IN MILES
HX     - HEAT INDEX IN FAHRENHEIT
WCI    - WIND CHILL INDEX IN FAHRENHEIT
N/A    - NOT AVAILABLE
AFB    - AIR FORCE BASE
         DAVIS-MONTHAN IS DAVIS-MONTHAN AIR FORCE BASE
CYN    - CANYON
MTNS   - MOUNTAINS
NCA    - NATIONAL CONSERVATION AREA
NR     - NEAR
VLY    - VALLEY
CONTL  - CONTINENTAL
PIMA CO DEQ - PIMA COUNTY DEPT OF ENVIRONMENTAL QUALITY




U.S. Dept. of Commerce
NOAA National Weather Service
1325 East West Highway
Silver Spring, MD 20910
E-mail: w-nws.webmaster@noaa.gov
Page last modified: May 16, 2007
NATIONAL WEATHER SERVICE: for Safety, for Work, for Fun - FOR LIFE